Location: Irma
(52.9170°N, 111.2330°W)
Time: 20:12:12
(UTC-07:00)

Daily predictions for brighter satellites

Satellite Brightness Start Highest point End
(mag) Time Altitude Azimuth Time Altitude Azimuth Time Altitude Azimuth
Cosmos 1048 Rocket 4.5 16:43:50 10° NNW 16:48:58 42° NE 16:54:03 10° SE
Cosmos 2219 3.8 16:43:25 10° NW 16:49:00 65° WSW 16:54:33 10° SSE
Cosmos 2278 Rocket 4.2 16:46:12 10° NW 16:49:06 14° NNW 16:51:59 10° NNE
Cosmos 1271 Rocket 3.1 16:46:01 10° N 16:49:38 40° ENE 16:53:16 10° SE
SL-16 R/B 3.6 16:49:17 10° N 16:55:05 43° WNW 17:00:50 10° SW
SJ-12 4.0 16:51:25 10° SSE 16:55:27 59° ENE 16:59:31 10° N
Cosmos 1818 3.6 16:52:16 10° SW 16:57:43 85° SE 17:03:13 10° NE
Cosmos 1943 Rocket 3.0 16:52:25 10° SW 16:57:54 49° NW 17:03:27 10° NNE
NOSS 2-3 (D) 4.2 16:53:53 10° SSW 16:58:35 61° SE 17:04:18 10° NE
ALOS 3.7 16:56:20 10° E 16:59:19 17° NE 17:02:17 10° NNE
Cosmos 1634 Rocket 4.0 16:55:24 10° S 17:01:36 73° E 17:07:53 10° NNE
NOSS 3-1 (C) 4.1 16:56:19 10° WSW 17:02:17 53° NNW 17:09:10 10° NE
USA 161 2.0 17:01:24 10° NNE 17:04:10 40° E 17:07:02 10° S
Cosmos 1666 2.8 17:01:21 10° N 17:05:02 48° ENE 17:08:40 10° SSE
NOSS 3-2 (A) 4.0 16:58:30 10° NW 17:05:45 79° NE 17:13:48 10° SE
Cosmos 2298 Rocket 4.2 17:00:40 10° S 17:05:52 58° ESE 17:11:05 10° NNE
Cosmos 2297 Rocket 2.2 17:01:23 10° NNW 17:07:04 71° NE 17:12:43 10° SE
Cosmos 990 Rocket 4.1 17:02:09 10° S 17:07:12 59° ESE 17:12:20 10° NNE
IDEFIX/ARIANE 42P 3.4 17:05:42 10° S 17:10:47 56° W 17:15:55 10° NNW
Okean-O 4.2 17:07:34 10° SSW 17:11:45 40° W 17:15:58 10° NNW
Cosmos 2026 Rocket 4.2 17:06:18 10° NNW 17:12:42 82° W 17:19:02 10° S
Cosmos 1455 Rocket 3.1 17:09:02 10° N 17:13:25 57° ENE 17:17:45 10° SSE
Meteor 1-12 Rocket 4.3 17:08:06 10° NNW 17:13:49 87° W 17:19:35 10° S
NOSS 3-2 (C) 3.9 17:06:53 10° NW 17:14:05 73° NE 17:22:07 10° ESE
Cosmos 2266 Rocket 4.2 17:09:21 10° N 17:15:10 44° ENE 17:21:01 10° SE
Cosmos 1484 Rocket 2.9 17:13:12 10° SSE 17:17:08 55° ENE 17:21:05 10° N
Cosmos 1812 3.6 17:13:40 10° SSW 17:17:27 52° WNW 17:21:16 10° N
Okean 1 3.2 17:13:37 10° S 17:17:35 76° E 17:21:34 10° NNE
Cosmos 1544 Rocket 3.5 17:13:30 10° N 17:17:53 67° ENE 17:22:12 10° SSE
ATLAS 3B R/B 3.1 17:11:26 10° NW 17:18:09 68° SW 17:24:38 10° SSE
Cosmos 158 Rocket 3.9 17:14:59 10° NNW 17:20:10 81° ENE 17:25:10 10° SSE
Cosmos 1655 Rocket 4.1 17:14:29 10° N 17:20:55 87° E 17:27:20 10° S
Cosmos 858 Rocket 4.5 17:16:21 10° SSW 17:21:33 89° ESE 17:26:47 10° NNE
Abrixas rocket 3.5 17:21:02 10° SW 17:24:00 32° S 17:26:50 11° ESE
ATLAS 2AS CENTAUR R/B 3.3 17:18:15 10° SSW 17:25:58 61° SE 17:33:20 13° NE
NOSS 2-3 (E) 4.1 17:23:40 10° SW 17:28:34 89° NW 17:33:48 13° NE
YAOGAN 1 2.9 17:26:49 10° SE 17:30:53 41° ENE 17:34:59 10° N
Cosmos 1975 3.8 17:27:58 10° NNW 17:31:55 52° W 17:35:51 10° S
ISS -0.3 17:31:06 10° WSW 17:32:13 11° SW 17:33:21 10° SSW
OPS 6432 4.2 17:29:05 10° SW 17:32:23 68° SE 17:34:20 20° NE
IRS-1A Rocket 4.2 17:31:56 10° SE 17:37:23 61° ENE 17:42:49 10° NNW
USA 215 4.0 17:31:53 10° SE 17:38:16 54° SW 17:44:41 10° WNW
CSL-04 Debris 4.2 17:33:08 10° SSE 17:38:33 90° NNE 17:43:59 10° NNW
Cosmos 2263 Rocket 3.3 17:36:54 10° NNW 17:41:19 23° NE 17:43:35 18° ENE
COSMO-SKYMED 1 3.8 17:40:01 19° ENE 17:41:22 22° E 17:44:44 10° SE
Meteor 2-4 Rocket 3.9 17:36:36 10° SSE 17:41:42 45° E 17:46:46 10° NNE
NOSS 3-1 (A) 4.2 17:36:17 10° W 17:42:14 47° NNW 17:47:55 15° NE
Meteor 1-28 Rocket 3.7 17:39:24 14° NNE 17:42:17 39° E 17:45:51 10° SSE
AQUARIUS 4.2 17:41:55 10° SSE 17:46:25 85° WSW 17:50:57 10° NNW
METEOR-M 4.1 17:42:22 10° SE 17:47:36 59° ENE 17:52:52 10° N
COSMOS 2455 4.0 17:42:52 10° NW 17:47:53 26° NNE 17:50:36 19° ENE
SJ 16-02 1.9 17:44:10 10° S 17:48:12 37° ESE 17:50:32 21° NE
FENGYUN 3A 4.0 17:43:56 10° SE 17:48:56 41° ENE 17:53:57 10° N
Cosmos 2150 Rocket 4.2 17:44:00 10° SSW 17:49:28 78° WNW 17:54:55 10° NNE
Cosmos 2369 4.1 17:44:54 10° S 17:50:14 43° ESE 17:53:59 19° NE
Cosmos 2278 4.2 17:45:06 10° S 17:50:24 42° ESE 17:54:03 19° NE
CZ-2C R/B 4.3 17:47:32 10° SSW 17:52:15 35° W 17:56:56 10° NNW
Cosmos 1975 Rocket 3.8 17:48:49 10° SSW 17:53:13 57° WNW 17:57:40 10° N
CSL-04 Rocket 4.1 17:48:24 10° S 17:53:50 66° WSW 17:59:22 10° NNW
Cosmos 1743 3.9 17:50:30 10° NNW 17:54:14 45° W 17:57:56 10° SSW
BREEZE-M DEB (TANK) 3.1 17:54:43 10° WSW 17:57:02 47° SSE 17:59:41 20° ESE
CENTAUR R/B 3.0 17:49:46 10° NW 17:57:16 67° NE 18:05:33 10° ESE
Meteor 1-13 Rocket 4.2 17:51:48 10° S 17:57:25 74° E 18:03:12 10° NNE
CZ-2C R/B 4.0 17:55:41 14° NNE 17:59:29 48° E 18:04:05 10° S
Cosmos 2369 Rocket 4.1 17:59:48 10° WNW 18:03:50 20° NNW 18:07:54 10° NNE
NOSS 2-3 (C) 4.4 17:59:28 10° WSW 18:04:26 62° NW 18:08:32 20° NE
Cosmos 1697 Rocket 3.3 18:00:30 10° S 18:05:33 35° ESE 18:07:40 26° ENE
CZ-4 R/B 1.6 18:01:41 10° S 18:05:34 71° WSW 18:09:36 10° NNW
Cosmos 2279 Rocket 4.3 18:00:29 10° SSW 18:06:43 68° WNW 18:13:00 10° N
Meteor 1-15 Rocket 4.2 18:02:29 10° N 18:08:28 76° ENE 18:14:22 10° SSE
Cosmos 1025 Rocket 3.6 18:07:07 10° SSE 18:10:59 33° E 18:11:07 33° E
Landsat 4 4.2 18:10:28 37° ENE 18:11:05 40° E 18:14:42 10° S
MONITOR-E 4.1 18:08:59 10° SSE 18:11:59 58° ENE 18:15:01 10° N
SPOT 3 Rocket 3.5 18:08:00 10° SSE 18:13:05 62° ENE 18:18:12 10° N
Cosmos 494 Rocket 3.9 18:09:42 10° NNW 18:15:00 71° ENE 18:20:15 10° SSE
ERS-2 2.0 18:11:26 10° SSE 18:15:04 64° ENE 18:18:44 10° N
Ariane Rocket 4.0 18:10:11 10° S 18:15:05 49° W 18:20:01 10° NNW
Cosmos 2251 Rocket 3.6 18:12:48 10° NNW 18:18:02 54° ENE 18:23:03 11° SE
Meteor 1-19 Rocket 4.5 18:13:47 10° SSW 18:19:30 74° WNW 18:25:23 10° N
SMAP 4.3 18:16:42 10° S 18:21:07 43° W 18:25:35 10° NNW
Cosmos 1536 Rocket 3.5 18:17:03 10° SSW 18:21:24 84° W 18:25:08 14° N
Cosmos 2227 Rocket 4.0 18:19:25 10° NW 18:24:25 33° WSW 18:29:24 10° SSW
Cosmos 1745 Rocket 4.4 18:18:48 10° N 18:24:34 39° ENE 18:30:22 10° SE
Okean 2 3.6 18:23:22 10° SSE 18:27:01 45° ESE 18:27:01 45° ESE
Cosmos 1125 Rocket 3.4 18:23:48 10° SSW 18:29:07 82° ESE 18:32:07 27° NNE
SKYMED 2 3.6 18:28:37 42° NE 18:29:47 57° E 18:34:03 10° S
Cosmos 1606 Rocket 3.5 18:29:51 10° N 18:34:09 55° ENE 18:34:40 51° ESE
Cosmos 2278 Rocket 4.1 18:32:55 10° NNW 18:35:48 14° NNE 18:36:01 14° NNE
ALOS 2.2 18:31:27 10° SSE 18:36:08 90° NNW 18:40:50 10° NNW
DNEPR-1 R/B 4.3 18:31:37 10° NW 18:36:28 68° SW 18:42:20 10° SSE
Cosmos 1844 Rocket 4.2 18:32:43 10° NNW 18:36:02 19° NNE 18:36:02 19° NNE
FengYun 1-2 T 4.3 18:34:36 10° SE 18:40:07 58° ENE 18:45:41 10° N
Cosmos 372 Rocket 3.9 18:35:11 10° SSW 18:40:24 86° WNW 18:42:58 31° NNE
Cosmos 1943 Rocket 4.3 18:39:15 10° WNW 18:43:05 18° NNW 18:46:19 12° NNE
Cosmos 1980 Rocket 2.6 18:41:39 10° S 18:46:52 42° ESE 18:46:52 42° ESE
Cosmos 2297 Rocket 4.4 18:46:06 10° NW 18:50:38 25° WSW 18:55:09 10° SSW
Meteor 1-22 Rocket 4.3 18:44:49 10° N 18:50:44 56° ENE 18:52:34 40° SE
Meteor 1-23 Rocket 4.3 18:50:21 10° SSW 18:56:05 76° WNW 19:00:51 15° N
Cosmos 1656 3.6 18:50:55 10° SW 18:56:29 80° WNW 18:58:29 41° NNE
USA 116 4.4 18:57:39 40° WNW 18:57:39 40° WNW 19:00:27 10° SW
Abrixas rocket 4.0 18:57:10 10° WSW 18:59:19 28° SW 18:59:19 28° SW
SL-24 R/B - RUBIN 2 4.4 19:04:01 10° SSW 19:09:29 54° SE 19:09:29 54° SE
ATLAS 2AS CENTAUR R/B 3.5 19:09:21 10° WSW 19:17:16 58° NNW 19:20:46 35° NNE
COSMO-SKYMED 1 3.2 19:17:13 49° NW 19:17:51 53° WNW 19:22:04 10° SW
Cosmos 2263 Rocket 2.3 19:20:33 10° NNW 19:25:19 64° N 19:25:19 64° N
SJ 16-02 2.8 19:22:50 10° WSW 19:26:51 34° NW 19:27:34 32° NW
S3M 4.2 19:24:19 10° S 19:28:55 53° SSE 19:28:55 53° SSE
USA 229 DEB 4.4 19:26:20 10° NW 19:32:52 40° NNE 19:32:56 40° NNE
USA 229 4.4 19:26:26 10° NW 19:32:58 39° NNE 19:33:02 39° NNE
COSMOS 2455 3.3 19:28:59 10° NW 19:33:45 51° N 19:33:45 51° N
Cosmos 1386 Rocket 4.4 19:31:21 10° N 19:37:44 90° WNW 19:38:17 77° S
NOSS 3-4 (A) 3.4 19:31:38 10° SW 19:37:52 88° S 19:37:52 88° S
NOSS 3-4 (C) 3.4 19:31:43 10° SW 19:37:56 87° S 19:37:56 87° S
CENTAUR R/B 3.8 19:40:37 10° NW 19:48:03 50° WSW 19:54:02 19° S
Cosmos 1697 Rocket 3.2 19:43:49 10° SW 19:49:21 53° NW 19:49:26 53° NW
Cosmos 1553 Rocket 4.4 19:57:07 10° SSW 20:03:29 63° WNW 20:03:57 61° NW
Cosmos 1980 Rocket 3.8 20:25:32 10° WSW 20:28:41 30° W 20:28:41 30° W
ATLAS 2AS CENTAUR R/B 4.2 21:02:19 10° WNW 21:08:13 36° NNW 21:08:13 36° NNW
